Terug naar catalogus

SUXING-1 01

ActiefWetenschapSSO
NORAD 60749·PAYLOAD·🇨🇳 China
Deze satellietnaam is nog niet bevestigd door officiële bronnen.

Gelanceerd Aug 29, 2024 vanaf Yellow Sea Launch Area

Loading…

Volgende Passages (komende 24 uur)

TLE

VersSource: Space-Track

Epoch: Sep 14, 2026, 14:14 UTC

1 60749U 24153E   26257.59313977  .00010961  00000-0  39282-3 0  9991
2 60749  97.6831  37.5737 0000371 263.2516  96.8681 15.28918032113484

Volg SUXING-1 01 in realtime met AllMySat

Download on the App Store